Terminal Aerodrome Forecast
Issued by NWS

Home | Current Version | Previous Version | Text Only | Print | Product List | Glossary On
Versions: 1 2 3 4 5 6 7 8 9 10 11 12 13
000
FTUS45 KABQ 291747 RRA
TAFROW
TAF
KROW 291747Z 2918/3018 05007KT P6SM VCSH BKN100
     FM291900 12009KT P6SM BKN100
     FM300200 03011KT P6SM VCTS OVC050CB
     FM300500 04007KT P6SM VCSH BKN060=

USA.gov is the U.S. government's official web portal to all federal, state and local government web resources and services.